TimeMST,TemperatureF,Dew PointF,Humidity,Sea Level PressureIn,VisibilityMPH,Wind Direction,Wind SpeedMPH,Gust SpeedMPH,PrecipitationIn,Events,Conditions,WindDirDegrees,DateUTC
12:39 AM,24.8,21.2,86,30.14,2.0,WSW,10.4,-,0.00,Snow,Light Snow,250,2013-11-06 07:39:00
12:55 AM,23.0,19.9,88,30.21,4.0,SW,8.1,-,0.00,,Overcast,220,2013-11-06 07:55:00
1:02 AM,21.2,19.4,93,30.13,1.8,SW,8.1,-,N/A,,Overcast,230,2013-11-06 08:02:00
1:25 AM,21.2,19.4,93,30.13,3.0,SW,10.4,-,N/A,,Overcast,220,2013-11-06 08:25:00
1:35 AM,21.2,17.6,86,30.13,2.0,SW,8.1,-,N/A,,Overcast,230,2013-11-06 08:35:00
1:55 AM,21.0,19.0,92,30.21,1.8,SW,6.9,-,N/A,,Overcast,220,2013-11-06 08:55:00
2:55 AM,23.0,19.9,88,30.19,2.0,SW,8.1,-,N/A,,Overcast,230,2013-11-06 09:55:00
3:15 AM,23.0,21.2,93,30.12,1.5,SW,6.9,-,N/A,,Overcast,230,2013-11-06 10:15:00
3:38 AM,23.0,21.2,93,30.12,2.0,SW,6.9,-,N/A,,Overcast,230,2013-11-06 10:38:00
3:51 AM,23.0,21.2,93,30.12,3.0,SW,6.9,-,N/A,,Overcast,230,2013-11-06 10:51:00
3:55 AM,23.0,21.0,92,30.19,3.0,SW,6.9,-,N/A,,Overcast,230,2013-11-06 10:55:00
4:02 AM,24.8,21.2,86,30.12,2.5,SW,8.1,-,N/A,,Overcast,220,2013-11-06 11:02:00
4:17 AM,23.0,21.2,93,30.11,1.5,SSW,6.9,-,N/A,,Overcast,210,2013-11-06 11:17:00
4:55 AM,23.0,19.9,88,30.19,1.0,SSW,8.1,-,N/A,,Mist,210,2013-11-06 11:55:00
5:55 AM,24.1,21.0,88,30.18,1.8,SW,9.2,-,N/A,,Overcast,230,2013-11-06 12:55:00
6:10 AM,24.8,21.2,86,30.10,3.0,WSW,5.8,-,N/A,,Overcast,240,2013-11-06 13:10:00
6:55 AM,21.0,18.0,88,30.19,10.0,SW,3.5,-,N/A,,Scattered Clouds,220,2013-11-06 13:55:00
7:55 AM,23.0,19.0,85,30.19,10.0,WSW,13.8,-,N/A,,Mostly Cloudy,250,2013-11-06 14:55:00
8:55 AM,24.1,19.9,84,30.20,10.0,West,11.5,-,N/A,,Overcast,260,2013-11-06 15:55:00
9:55 AM,27.0,21.9,81,30.19,10.0,West,12.7,-,N/A,,Mostly Cloudy,270,2013-11-06 16:55:00
10:55 AM,30.0,24.1,79,30.19,10.0,WSW,13.8,-,N/A,,Clear,250,2013-11-06 17:55:00
11:55 AM,34.0,26.1,73,30.17,10.0,West,11.5,-,N/A,,Clear,260,2013-11-06 18:55:00
12:55 PM,36.0,27.0,70,30.17,10.0,West,10.4,-,N/A,,Clear,270,2013-11-06 19:55:00
1:55 PM,35.1,26.1,70,30.19,10.0,WSW,8.1,-,N/A,,Clear,240,2013-11-06 20:55:00
2:55 PM,36.0,27.0,70,30.19,10.0,WSW,6.9,-,N/A,,Scattered Clouds,250,2013-11-06 21:55:00
3:55 PM,35.1,27.0,72,30.20,10.0,West,6.9,-,N/A,,Scattered Clouds,270,2013-11-06 22:55:00
4:55 PM,34.0,27.0,75,30.22,10.0,West,4.6,-,N/A,,Partly Cloudy,280,2013-11-06 23:55:00
5:55 PM,34.0,27.0,75,30.24,10.0,West,9.2,-,N/A,,Scattered Clouds,270,2013-11-07 00:55:00
6:55 PM,33.1,27.0,78,30.27,10.0,West,10.4,-,N/A,,Clear,260,2013-11-07 01:55:00
7:55 PM,33.1,28.0,82,30.28,10.0,WNW,10.4,-,N/A,,Clear,290,2013-11-07 02:55:00
8:55 PM,33.1,28.0,82,30.31,10.0,WNW,9.2,-,N/A,,Clear,290,2013-11-07 03:55:00
9:55 PM,34.0,28.0,79,30.33,10.0,WNW,15.0,-,N/A,,Clear,300,2013-11-07 04:55:00
10:55 PM,33.1,28.0,82,30.35,10.0,WNW,11.5,-,N/A,,Clear,290,2013-11-07 05:55:00
11:55 PM,30.0,26.1,85,30.37,10.0,WNW,11.5,-,N/A,,Clear,290,2013-11-07 06:55:00